DELTA 1 DEB, 42659

Orbit data source: Space-Track

DELTA 1 DEB, 42659 is space debris in SSO originally from a launch on Thu, 12 Jun 1975 UTC launched from the Air Force Western Test Range (AFWTR). Debris objects in space refer to the collection of defunct objects orbiting the Earth. Examples of debris include non-operational satellites, rocket bodies, and fragments generated from explosions, collisions, or faulty payload assembly.

Loading next visibility...
DELTA 1 DEB details
Identifier
42659, 1975-052MU
Orbit
SSO
Last TLE update16 hours ago
Origin
Flag of USGSFC (US)
ManufacturerUnknown
MissionSpacecraft
Bus & MotorUnknown
MassUnknown
Launch date (UTC)
1975-06-12 (50 years ago)
Launch vehicleUnknown
Launch site
Air Force Western Test Range (AFWTR)
Object type
Payload
Rocket body
Debris
Shape & HBRUnknown
Radar Cross SectionSmall (<0.1 m²)

Expand to show TLE details & history

TLE from 16 hours ago
0 DELTA 1 DEB
1 42659U 75052MU  24361.10297778  .00015961  00000-0  16730-2 0  9993
2 42659  98.1800  95.1814 0000330 358.3312 123.1352 14.89641683597258
Epoch: 2024-12-26T02:28Z
Definitive object data (Epoch: 2024-12-26T02:28:17.28Z)
Latitude57.69243°
Longitude156.08867°
Altitude608.893 km
Speed7.56 km/s
True Right ascension19h 12m 59s
True Declination57° 32' 01"
Sunlit
Object was in daylight at TLE epoch
Visualization TLE readout
Latitude81.86128°
Longitude-124.838°
Altitude612.489 km
Speed7.56 km/s
Apparent Right ascension05h 05m 52s
Apparent Declination28° 42' 28"
Sunlit
Object is in daylight
Visualization observer readout
Local Sidereal Time17:49:32
Azimuth10.222° NNE
Elevation-20.629°
Doppler factor1
Orbital elements
Apogee altitude596.325 km
Perigee altitude595.865 km
Semi-major axis6,974.232 km
Eccentricity0.000033
Inclination98.18°
RAAN95.1814°
Arg. of periapsis358.3312°
True anomaly123.13837°
Mean anomaly123.1352°
Eccentric anomaly123.13678°
Mean motion3.72648 °/min
BSTAR0.001673
Orbital period96.61 mins
Loading maneuver chart data...
Loading historical data...
Loading historical data...
Loading historical data...
Loading historical data...
Loading historical data...
Loading historical data...
Loading historical data...

DELTA 1 DEB Visibility forecast

Observer location: undefined°, undefined

Span
Click to sort rows by Start time (UTC) header in descending order
Start Az.
Max El. time (UTC)
Max El. Az.
Max El.
End time (UTC)
End Az.
6 mins2024-12-26 18:38:02.118Z46.138° ENE2024-12-26 18:41:02.118Z100.801° ESE22.788°2024-12-26 18:44:02.118Z149.844° SSE
5 mins2024-12-26 20:14:02.118Z336.536° NNW2024-12-26 20:16:02.118Z300.199° NW23.109°2024-12-26 20:19:02.118Z243.043° WSW
4 mins2024-12-27 05:30:02.118Z97.53° ESE2024-12-27 05:32:02.118Z62.83° ENE17.632°2024-12-27 05:34:02.118Z30.261° NE
6 mins2024-12-27 07:05:02.118Z209.042° SW2024-12-27 07:07:02.118Z255.078° W30.033°2024-12-27 07:11:02.118Z328.639° NNW
|